owner,sensor,date,latitude,longitude,vertical_datum,direction_of_sea_water_velocity,sea_water_speed,upward_sea_water_velocity,qcFlag 
TABS,ioos:station:wmo:42048:1,2006-05-01T00:00:00Z,27.9396,-96.8429,2.0,241.3523184,16.12375266,-99999.0,'11111222,11111222,99999999' 
TABS,ioos:station:wmo:42048:1,2006-05-01T00:30:00Z,27.9396,-96.8429,2.0,235.5005264,15.71344965,-99999.0,'11111222,11111222,99999999' 
TABS,ioos:station:wmo:42048:1,2006-05-01T01:00:00Z,27.9396,-96.8429,2.0,239.3660199,21.43081893,-99999.0,'11111222,11111222,99999999' 
TABS,ioos:station:wmo:42048:1,2006-05-01T01:30:00Z,27.9396,-96.8429,2.0,237.7425063,19.29850771,-99999.0,'11111222,11111222,99999999' 
TABS,ioos:station:wmo:42048:1,2006-05-01T02:00:00Z,27.9396,-96.8429,2.0,231.6054717,17.51819911,-99999.0,'11111222,11111222,99999999' 
TABS,ioos:station:wmo:42048:1,2006-05-01T02:30:00Z,27.9396,-96.8429,2.0,241.6988895,18.89897352,-99999.0,'11111222,11111222,99999999' 
TABS,ioos:station:wmo:42048:1,2006-05-01T03:00:00Z,27.9396,-96.8429,2.0,230.7757272,20.9376694,-99999.0,'11111222,11111222,99999999' 
TABS,ioos:station:wmo:42048:1,2006-05-01T03:30:00Z,27.9396,-96.8429,2.0,233.999414,21.74250446,-99999.0,'11111222,11111222,99999999' 
TABS,ioos:station:wmo:42048:1,2006-05-01T04:00:00Z,27.9396,-96.8429,2.0,234.3815085,20.69093763,-99999.0,'11111222,11111222,99999999' 
TABS,ioos:station:wmo:42048:1,2006-05-01T04:30:00Z,27.9396,-96.8429,2.0,229.0554241,20.29529256,-99999.0,'11111222,11111222,99999999' 
TABS,ioos:station:wmo:42048:1,2006-05-01T05:30:00Z,27.9396,-96.8429,2.0,225.0188788,21.1071386,-99999.0,'11111222,11111222,99999999' 
TABS,ioos:station:wmo:42048:1,2006-05-01T06:00:00Z,27.9396,-96.8429,2.0,228.881804,19.00821927,-99999.0,'11111222,11111222,99999999' 
TABS,ioos:station:wmo:42048:1,2006-05-01T07:00:00Z,27.9396,-96.8429,2.0,229.130853,20.90690077,-99999.0,'11111222,11111222,99999999' 
TABS,ioos:station:wmo:42048:1,2006-05-01T07:30:00Z,27.9396,-96.8429,2.0,226.5488717,21.1855918,-99999.0,'11111222,11111222,99999999' 
TABS,ioos:station:wmo:42048:1,2006-05-01T08:00:00Z,27.9396,-96.8429,2.0,232.5760293,19.03888915,-99999.0,'11111222,11111222,99999999' 
TABS,ioos:station:wmo:42048:1,2006-05-01T09:00:00Z,27.9396,-96.8429,2.0,231.2174046,18.99858153,-99999.0,'11111222,11111222,99999999' 
TABS,ioos:station:wmo:42048:1,2006-05-01T09:30:00Z,27.9396,-96.8429,2.0,223.6927096,20.15071463,-99999.0,'11111222,11111222,99999999' 
TABS,ioos:station:wmo:42048:1,2006-05-01T10:00:00Z,27.9396,-96.8429,2.0,226.816542,17.84220278,-99999.0,'11111222,11111222,99999999' 
TABS,ioos:station:wmo:42048:1,2006-05-01T10:30:00Z,27.9396,-96.8429,2.0,231.8028017,20.29544284,-99999.0,'11111222,11111222,99999999' 
TABS,ioos:station:wmo:42048:1,2006-05-01T11:00:00Z,27.9396,-96.8429,2.0,235.3004698,17.95288278,-99999.0,'11111222,11111222,99999999' 
TABS,ioos:station:wmo:42048:1,2006-05-01T11:30:00Z,27.9396,-96.8429,2.0,230.2244369,16.92775827,-99999.0,'11111222,11111222,99999999' 
TABS,ioos:station:wmo:42048:1,2006-05-01T12:00:00Z,27.9396,-96.8429,2.0,226.2116165,17.38457362,-99999.0,'11111222,11111222,99999999' 
TABS,ioos:station:wmo:42048:1,2006-05-01T12:30:00Z,27.9396,-96.8429,2.0,225.5585394,18.12400894,-99999.0,'11111222,11111222,99999999' 
TABS,ioos:station:wmo:42048:1,2006-05-01T13:00:00Z,27.9396,-96.8429,2.0,230.9132555,18.66796722,-99999.0,'11111222,11111222,99999999' 
TABS,ioos:station:wmo:42048:1,2006-05-01T13:30:00Z,27.9396,-96.8429,2.0,229.2701205,18.89685953,-99999.0,'11111222,11111222,99999999' 
TABS,ioos:station:wmo:42048:1,2006-05-01T14:00:00Z,27.9396,-96.8429,2.0,224.5247501,18.76725872,-99999.0,'11111222,11111222,99999999' 
TABS,ioos:station:wmo:42048:1,2006-05-01T14:30:00Z,27.9396,-96.8429,2.0,236.0603198,17.21250999,-99999.0,'11111222,11111222,99999999' 
TABS,ioos:station:wmo:42048:1,2006-05-01T15:00:00Z,27.9396,-96.8429,2.0,236.4867447,17.043245,-99999.0,'11111222,11111222,99999999' 
TABS,ioos:station:wmo:42048:1,2006-05-01T15:30:00Z,27.9396,-96.8429,2.0,229.2311381,18.20813554,-99999.0,'11111222,11111222,99999999' 
TABS,ioos:station:wmo:42048:1,2006-05-01T16:00:00Z,27.9396,-96.8429,2.0,240.3285702,14.44385683,-99999.0,'11111222,11111222,99999999' 
TABS,ioos:station:wmo:42048:1,2006-05-01T16:30:00Z,27.9396,-96.8429,2.0,233.1159432,16.57800048,-99999.0,'11111222,11111222,99999999' 
TABS,ioos:station:wmo:42048:1,2006-05-01T17:00:00Z,27.9396,-96.8429,2.0,241.624665,13.59313062,-99999.0,'11111222,11111222,99999999' 
TABS,ioos:station:wmo:42048:1,2006-05-01T17:30:00Z,27.9396,-96.8429,2.0,258.8847614,16.70330806,-99999.0,'11111222,11111222,99999999' 
TABS,ioos:station:wmo:42048:1,2006-05-01T18:00:00Z,27.9396,-96.8429,2.0,265.9196667,14.33633147,-99999.0,'11111222,11111222,99999999' 
TABS,ioos:station:wmo:42048:1,2006-05-01T18:30:00Z,27.9396,-96.8429,2.0,271.0116207,16.43255914,-99999.0,'11111222,11111222,99999999' 
TABS,ioos:station:wmo:42048:1,2006-05-01T19:00:00Z,27.9396,-96.8429,2.0,279.0754514,13.37745118,-99999.0,'11111222,11111222,99999999' 
TABS,ioos:station:wmo:42048:1,2006-05-01T19:30:00Z,27.9396,-96.8429,2.0,281.054434,13.6125567,-99999.0,'11111222,11111222,99999999' 
TABS,ioos:station:wmo:42048:1,2006-05-01T20:00:00Z,27.9396,-96.8429,2.0,274.5979598,15.46977699,-99999.0,'11111222,11111222,99999999' 
TABS,ioos:station:wmo:42048:1,2006-05-01T21:00:00Z,27.9396,-96.8429,2.0,269.9619341,15.22000329,-99999.0,'11111222,11111222,99999999' 
TABS,ioos:station:wmo:42048:1,2006-05-01T21:30:00Z,27.9396,-96.8429,2.0,257.1595097,14.17444532,-99999.0,'11111222,11111222,99999999' 
TABS,ioos:station:wmo:42048:1,2006-05-01T22:00:00Z,27.9396,-96.8429,2.0,267.2938585,15.88771223,-99999.0,'11111222,11111222,99999999' 
TABS,ioos:station:wmo:42048:1,2006-05-01T22:30:00Z,27.9396,-96.8429,2.0,262.4301428,15.03098134,-99999.0,'11111222,11111222,99999999' 
TABS,ioos:station:wmo:42048:1,2006-05-01T23:00:00Z,27.9396,-96.8429,2.0,259.0151719,15.53460975,-99999.0,'11111222,11111222,99999999' 
TABS,ioos:station:wmo:42048:1,2006-05-01T23:30:00Z,27.9396,-96.8429,2.0,245.9087887,14.50324102,-99999.0,'11111222,11111222,99999999' 
TABS,ioos:station:wmo:42048:1,2006-05-02T00:00:00Z,27.9396,-96.8429,2.0,243.5798258,17.64263302,-99999.0,'11111222,11111222,99999999' 
TABS,ioos:station:wmo:42048:1,2006-05-02T01:00:00Z,27.9396,-96.8429,2.0,242.8425946,17.74638273,-99999.0,'11111222,11111222,99999999' 
TABS,ioos:station:wmo:42048:1,2006-05-02T01:30:00Z,27.9396,-96.8429,2.0,239.3067175,18.14132299,-99999.0,'11111222,11111222,99999999' 
TABS,ioos:station:wmo:42048:1,2006-05-02T02:00:00Z,27.9396,-96.8429,2.0,242.0083233,18.6859011,-99999.0,'11111222,11111222,99999999' 
TABS,ioos:station:wmo:42048:1,2006-05-02T02:30:00Z,27.9396,-96.8429,2.0,238.6511203,21.45152675,-99999.0,'11111222,11111222,99999999' 
TABS,ioos:station:wmo:42048:1,2006-05-02T03:00:00Z,27.9396,-96.8429,2.0,237.8920636,21.39185125,-99999.0,'11111222,11111222,99999999' 
TABS,ioos:station:wmo:42048:1,2006-05-02T03:30:00Z,27.9396,-96.8429,2.0,236.1146343,22.00785769,-99999.0,'11111222,11111222,99999999' 
TABS,ioos:station:wmo:42048:1,2006-05-02T04:00:00Z,27.9396,-96.8429,2.0,236.0212863,22.59877209,-99999.0,'11111222,11111222,99999999' 
TABS,ioos:station:wmo:42048:1,2006-05-02T05:00:00Z,27.9396,-96.8429,2.0,233.9877695,21.77044097,-99999.0,'11111222,11111222,99999999' 
TABS,ioos:station:wmo:42048:1,2006-05-02T05:30:00Z,27.9396,-96.8429,2.0,238.5400294,22.59063965,-99999.0,'11111222,11111222,99999999' 
TABS,ioos:station:wmo:42048:1,2006-05-02T06:00:00Z,27.9396,-96.8429,2.0,238.5775396,25.51123086,-99999.0,'11111222,11111222,99999999' 
TABS,ioos:station:wmo:42048:1,2006-05-02T06:30:00Z,27.9396,-96.8429,2.0,232.4893525,23.97749778,-99999.0,'11111222,11111222,99999999' 
TABS,ioos:station:wmo:42048:1,2006-05-02T07:00:00Z,27.9396,-96.8429,2.0,234.329805,23.68319446,-99999.0,'11111222,11111222,99999999' 
TABS,ioos:station:wmo:42048:1,2006-05-02T07:30:00Z,27.9396,-96.8429,2.0,234.8616117,22.50027778,-99999.0,'11111222,11111222,99999999' 
TABS,ioos:station:wmo:42048:1,2006-05-02T08:00:00Z,27.9396,-96.8429,2.0,242.736552,23.86061609,-99999.0,'11111222,11111222,99999999' 
TABS,ioos:station:wmo:42048:1,2006-05-02T08:30:00Z,27.9396,-96.8429,2.0,246.4298171,21.48218332,-99999.0,'11111222,11111222,99999999' 
TABS,ioos:station:wmo:42048:1,2006-05-02T09:00:00Z,27.9396,-96.8429,2.0,241.3873131,24.41108355,-99999.0,'11111222,11111222,99999999' 
TABS,ioos:station:wmo:42048:1,2006-05-02T09:30:00Z,27.9396,-96.8429,2.0,234.0846067,24.0033331,-99999.0,'11111222,11111222,99999999' 
TABS,ioos:station:wmo:42048:1,2006-05-02T10:00:00Z,27.9396,-96.8429,2.0,237.7964204,23.94337487,-99999.0,'11111222,11111222,99999999' 
TABS,ioos:station:wmo:42048:1,2006-05-02T10:30:00Z,27.9396,-96.8429,2.0,229.872014,24.14301555,-99999.0,'11111222,11111222,99999999' 
TABS,ioos:station:wmo:42048:1,2006-05-02T11:30:00Z,27.9396,-96.8429,2.0,232.0104398,23.7525325,-99999.0,'11111222,11111222,99999999' 
TABS,ioos:station:wmo:42048:1,2006-05-02T12:00:00Z,27.9396,-96.8429,2.0,236.7870998,23.29544376,-99999.0,'11111222,11111222,99999999' 
TABS,ioos:station:wmo:42048:1,2006-05-02T12:30:00Z,27.9396,-96.8429,2.0,233.6910821,23.06910705,-99999.0,'11111222,11111222,99999999' 
TABS,ioos:station:wmo:42048:1,2006-05-02T13:00:00Z,27.9396,-96.8429,2.0,231.5816136,23.31851196,-99999.0,'11111222,11111222,99999999' 
TABS,ioos:station:wmo:42048:1,2006-05-02T14:00:00Z,27.9396,-96.8429,2.0,227.2796604,21.32908343,-99999.0,'11111222,11111222,99999999' 
TABS,ioos:station:wmo:42048:1,2006-05-02T14:30:00Z,27.9396,-96.8429,2.0,228.4294622,21.03875472,-99999.0,'11111222,11111222,99999999' 
TABS,ioos:station:wmo:42048:1,2006-05-02T15:00:00Z,27.9396,-96.8429,2.0,233.2983958,21.06609124,-99999.0,'11111222,11111222,99999999' 
TABS,ioos:station:wmo:42048:1,2006-05-02T15:30:00Z,27.9396,-96.8429,2.0,231.5752266,19.38913613,-99999.0,'11111222,11111222,99999999' 
TABS,ioos:station:wmo:42048:1,2006-05-02T16:00:00Z,27.9396,-96.8429,2.0,231.6601857,18.71615612,-99999.0,'11111222,11111222,99999999' 
TABS,ioos:station:wmo:42048:1,2006-05-02T16:30:00Z,27.9396,-96.8429,2.0,236.0099807,22.80681039,-99999.0,'11111222,11111222,99999999' 
TABS,ioos:station:wmo:42048:1,2006-05-02T17:00:00Z,27.9396,-96.8429,2.0,237.5487508,19.49395034,-99999.0,'11111222,11111222,99999999' 
TABS,ioos:station:wmo:42048:1,2006-05-02T17:30:00Z,27.9396,-96.8429,2.0,231.6224915,19.31268236,-99999.0,'11111222,11111222,99999999' 
TABS,ioos:station:wmo:42048:1,2006-05-02T18:00:00Z,27.9396,-96.8429,2.0,245.0970185,17.26523965,-99999.0,'11111222,11111222,99999999' 
TABS,ioos:station:wmo:42048:1,2006-05-02T18:30:00Z,27.9396,-96.8429,2.0,255.5464983,16.66748931,-99999.0,'11111222,11111222,99999999' 
TABS,ioos:station:wmo:42048:1,2006-05-02T19:00:00Z,27.9396,-96.8429,2.0,252.2630386,13.49127866,-99999.0,'11111222,11111222,99999999' 
TABS,ioos:station:wmo:42048:1,2006-05-02T19:30:00Z,27.9396,-96.8429,2.0,263.1899824,15.09649628,-99999.0,'11111222,11111222,99999999' 
TABS,ioos:station:wmo:42048:1,2006-05-02T20:00:00Z,27.9396,-96.8429,2.0,258.6584408,14.39100413,-99999.0,'11111222,11111222,99999999' 
TABS,ioos:station:wmo:42048:1,2006-05-02T20:30:00Z,27.9396,-96.8429,2.0,255.8314596,14.74863044,-99999.0,'11111222,11111222,99999999' 
TABS,ioos:station:wmo:42048:1,2006-05-02T21:00:00Z,27.9396,-96.8429,2.0,243.2426455,13.34940074,-99999.0,'11111222,11111222,99999999' 
TABS,ioos:station:wmo:42048:1,2006-05-02T21:30:00Z,27.9396,-96.8429,2.0,251.7804752,13.43345079,-99999.0,'11111222,11111222,99999999' 
TABS,ioos:station:wmo:42048:1,2006-05-02T22:00:00Z,27.9396,-96.8429,2.0,244.5099433,12.1529338,-99999.0,'11111222,11111222,99999999' 
TABS,ioos:station:wmo:42048:1,2006-05-02T22:30:00Z,27.9396,-96.8429,2.0,247.608163,10.99931816,-99999.0,'11111222,11111222,99999999' 
TABS,ioos:station:wmo:42048:1,2006-05-02T23:00:00Z,27.9396,-96.8429,2.0,249.987884,13.67570474,-99999.0,'11111222,11111222,99999999' 
TABS,ioos:station:wmo:42048:1,2006-05-02T23:30:00Z,27.9396,-96.8429,2.0,247.4402571,15.30077776,-99999.0,'11111222,11111222,99999999' 
TABS,ioos:station:wmo:42048:1,2006-05-03T00:00:00Z,27.9396,-96.8429,2.0,238.1645738,13.1949119,-99999.0,'11111222,11111222,99999999' 
TABS,ioos:station:wmo:42048:1,2006-05-03T00:30:00Z,27.9396,-96.8429,2.0,234.1540566,16.22259227,-99999.0,'11111222,11111222,99999999' 
TABS,ioos:station:wmo:42048:1,2006-05-03T01:00:00Z,27.9396,-96.8429,2.0,221.3533095,17.67810227,-99999.0,'11111222,11111222,99999999' 
TABS,ioos:station:wmo:42048:1,2006-05-03T01:30:00Z,27.9396,-96.8429,2.0,228.2524071,17.5716277,-99999.0,'11111222,11111222,99999999' 
TABS,ioos:station:wmo:42048:1,2006-05-03T02:00:00Z,27.9396,-96.8429,2.0,223.2013151,16.44833426,-99999.0,'11111222,11111222,99999999' 
TABS,ioos:station:wmo:42048:1,2006-05-03T02:30:00Z,27.9396,-96.8429,2.0,227.7502072,15.91409438,-99999.0,'11111222,11111222,99999999' 
TABS,ioos:station:wmo:42048:1,2006-05-03T03:00:00Z,27.9396,-96.8429,2.0,223.436403,17.36593505,-99999.0,'11111222,11111222,99999999' 
TABS,ioos:station:wmo:42048:1,2006-05-03T03:30:00Z,27.9396,-96.8429,2.0,220.1958721,20.09585529,-99999.0,'11111222,11111222,99999999' 
TABS,ioos:station:wmo:42048:1,2006-05-03T04:00:00Z,27.9396,-96.8429,2.0,218.3971928,21.83175898,-99999.0,'11111222,11111222,99999999' 
TABS,ioos:station:wmo:42048:1,2006-05-03T04:30:00Z,27.9396,-96.8429,2.0,223.8658775,19.65434558,-99999.0,'11111222,11111222,99999999' 
TABS,ioos:station:wmo:42048:1,2006-05-03T05:00:00Z,27.9396,-96.8429,2.0,227.3778767,19.59666553,-99999.0,'11111222,11111222,99999999' 
TABS,ioos:station:wmo:42048:1,2006-05-03T05:30:00Z,27.9396,-96.8429,2.0,224.6895021,18.28604933,-99999.0,'11111222,11111222,99999999' 
TABS,ioos:station:wmo:42048:1,2006-05-03T06:00:00Z,27.9396,-96.8429,2.0,224.0206768,22.34783658,-99999.0,'11111222,11111222,99999999' 
TABS,ioos:station:wmo:42048:1,2006-05-03T06:30:00Z,27.9396,-96.8429,2.0,221.8677988,21.09622004,-99999.0,'11111222,11111222,99999999' 
TABS,ioos:station:wmo:42048:1,2006-05-03T07:00:00Z,27.9396,-96.8429,2.0,222.5132443,22.65581824,-99999.0,'11111222,11111222,99999999' 
TABS,ioos:station:wmo:42048:1,2006-05-03T07:30:00Z,27.9396,-96.8429,2.0,219.2055562,17.37043465,-99999.0,'11111222,11111222,99999999' 
TABS,ioos:station:wmo:42048:1,2006-05-03T08:00:00Z,27.9396,-96.8429,2.0,226.2659215,18.55901398,-99999.0,'11111222,11111222,99999999' 
TABS,ioos:station:wmo:42048:1,2006-05-03T08:30:00Z,27.9396,-96.8429,2.0,223.0440075,20.30579228,-99999.0,'11111222,11111222,99999999' 
TABS,ioos:station:wmo:42048:1,2006-05-03T09:00:00Z,27.9396,-96.8429,2.0,225.4438277,18.24390309,-99999.0,'11111222,11111222,99999999' 
TABS,ioos:station:wmo:42048:1,2006-05-03T09:30:00Z,27.9396,-96.8429,2.0,232.7779053,19.54036847,-99999.0,'11111222,11111222,99999999' 
TABS,ioos:station:wmo:42048:1,2006-05-03T10:00:00Z,27.9396,-96.8429,2.0,228.3876324,17.70861937,-99999.0,'11111222,11111222,99999999' 
TABS,ioos:station:wmo:42048:1,2006-05-03T10:30:00Z,27.9396,-96.8429,2.0,219.9189763,16.12883753,-99999.0,'11111222,11111222,99999999' 
TABS,ioos:station:wmo:42048:1,2006-05-03T11:00:00Z,27.9396,-96.8429,2.0,224.4826341,16.45504482,-99999.0,'11111222,11111222,99999999' 
TABS,ioos:station:wmo:42048:1,2006-05-03T11:30:00Z,27.9396,-96.8429,2.0,234.414771,15.51790256,-99999.0,'11111222,11111222,99999999' 
TABS,ioos:station:wmo:42048:1,2006-05-03T12:00:00Z,27.9396,-96.8429,2.0,216.1248527,12.92509188,-99999.0,'11111222,11111222,99999999' 
TABS,ioos:station:wmo:42048:1,2006-05-03T12:30:00Z,27.9396,-96.8429,2.0,204.9778886,13.40365995,-99999.0,'11111222,11111222,99999999' 
TABS,ioos:station:wmo:42048:1,2006-05-03T13:00:00Z,27.9396,-96.8429,2.0,214.6085919,11.76115641,-99999.0,'11111222,11111222,99999999' 
TABS,ioos:station:wmo:42048:1,2006-05-03T14:00:00Z,27.9396,-96.8429,2.0,211.1396048,11.15775067,-99999.0,'11111222,11111222,99999999' 
TABS,ioos:station:wmo:42048:1,2006-05-03T14:30:00Z,27.9396,-96.8429,2.0,215.353103,8.312911644,-99999.0,'11133222,11111222,99999999' 
TABS,ioos:station:wmo:42048:1,2006-05-03T15:00:00Z,27.9396,-96.8429,2.0,214.6555376,9.214879272,-99999.0,'11133222,11111222,99999999' 
TABS,ioos:station:wmo:42048:1,2006-05-03T15:30:00Z,27.9396,-96.8429,2.0,224.9552346,9.114609152,-99999.0,'11133222,11111222,99999999' 
TABS,ioos:station:wmo:42048:1,2006-05-03T16:00:00Z,27.9396,-96.8429,2.0,203.1728044,5.89565942,-99999.0,'11133222,11111222,99999999' 
TABS,ioos:station:wmo:42048:1,2006-05-03T16:30:00Z,27.9396,-96.8429,2.0,194.2052988,5.74569404,-99999.0,'11133222,11111222,99999999' 
TABS,ioos:station:wmo:42048:1,2006-05-03T17:00:00Z,27.9396,-96.8429,2.0,205.0299989,5.176118237,-99999.0,'11133222,11111222,99999999' 
TABS,ioos:station:wmo:42048:1,2006-05-03T17:30:00Z,27.9396,-96.8429,2.0,197.6166745,5.98047657,-99999.0,'11133222,11111222,99999999' 
TABS,ioos:station:wmo:42048:1,2006-05-03T18:00:00Z,27.9396,-96.8429,2.0,182.5087919,6.396131643,-99999.0,'11133222,11111222,99999999' 
TABS,ioos:station:wmo:42048:1,2006-05-03T18:30:00Z,27.9396,-96.8429,2.0,170.7670534,4.923789191,-99999.0,'11133222,11111222,99999999' 
TABS,ioos:station:wmo:42048:1,2006-05-03T19:00:00Z,27.9396,-96.8429,2.0,140.2594498,5.631065619,-99999.0,'11133222,11111222,99999999' 
TABS,ioos:station:wmo:42048:1,2006-05-03T19:30:00Z,27.9396,-96.8429,2.0,132.1843447,3.454851661,-99999.0,'11133222,11111222,99999999' 
TABS,ioos:station:wmo:42048:1,2006-05-03T20:00:00Z,27.9396,-96.8429,2.0,183.6197916,4.90979633,-99999.0,'11133222,11111222,99999999' 
TABS,ioos:station:wmo:42048:1,2006-05-03T20:30:00Z,27.9396,-96.8429,2.0,157.9267058,2.740894015,-99999.0,'11133222,11111222,99999999' 
TABS,ioos:station:wmo:42048:1,2006-05-03T21:00:00Z,27.9396,-96.8429,2.0,174.59147,3.395114137,-99999.0,'11133222,11111222,99999999' 
TABS,ioos:station:wmo:42048:1,2006-05-03T22:00:00Z,27.9396,-96.8429,2.0,262.6652174,2.036663939,-99999.0,'11133222,11111222,99999999' 
TABS,ioos:station:wmo:42048:1,2006-05-03T23:00:00Z,27.9396,-96.8429,2.0,275.1445563,4.126620894,-99999.0,'11133222,11111222,99999999' 
TABS,ioos:station:wmo:42048:1,2006-05-03T23:30:00Z,27.9396,-96.8429,2.0,243.8094744,4.101036454,-99999.0,'11133222,11111222,99999999' 
TABS,ioos:station:wmo:42048:1,2006-05-04T00:00:00Z,27.9396,-96.8429,2.0,263.5366084,5.15274684,-99999.0,'11133222,11111222,99999999' 
TABS,ioos:station:wmo:42048:1,2006-05-04T00:30:00Z,27.9396,-96.8429,2.0,244.3829641,5.944282968,-99999.0,'11133222,11111222,99999999' 
TABS,ioos:station:wmo:42048:1,2006-05-04T01:00:00Z,27.9396,-96.8429,2.0,232.2139295,5.630719315,-99999.0,'11133222,11111222,99999999' 
TABS,ioos:station:wmo:42048:1,2006-05-04T01:30:00Z,27.9396,-96.8429,2.0,229.5136622,3.234439673,-99999.0,'11133222,11111222,99999999' 
TABS,ioos:station:wmo:42048:1,2006-05-04T02:00:00Z,27.9396,-96.8429,2.0,244.6571774,7.33597301,-99999.0,'11133222,11111222,99999999' 
TABS,ioos:station:wmo:42048:1,2006-05-04T02:30:00Z,27.9396,-96.8429,2.0,254.175371,9.09466327,-99999.0,'11133222,11111222,99999999' 
TABS,ioos:station:wmo:42048:1,2006-05-04T03:00:00Z,27.9396,-96.8429,2.0,227.4391546,9.137029058,-99999.0,'11133222,11111222,99999999' 
TABS,ioos:station:wmo:42048:1,2006-05-04T03:30:00Z,27.9396,-96.8429,2.0,219.0178693,6.242387364,-99999.0,'11133222,11111222,99999999' 
TABS,ioos:station:wmo:42048:1,2006-05-04T04:00:00Z,27.9396,-96.8429,2.0,209.9106254,12.41344835,-99999.0,'11111222,11111222,99999999' 
TABS,ioos:station:wmo:42048:1,2006-05-04T04:30:00Z,27.9396,-96.8429,2.0,208.3474235,9.919526198,-99999.0,'11133222,11111222,99999999' 
TABS,ioos:station:wmo:42048:1,2006-05-04T05:00:00Z,27.9396,-96.8429,2.0,200.9807682,9.467718838,-99999.0,'11133222,11111222,99999999' 
TABS,ioos:station:wmo:42048:1,2006-05-04T05:30:00Z,27.9396,-96.8429,2.0,216.9753124,10.84001845,-99999.0,'11111222,11111222,99999999' 
TABS,ioos:station:wmo:42048:1,2006-05-04T06:00:00Z,27.9396,-96.8429,2.0,211.2693341,11.88673631,-99999.0,'11111222,11111222,99999999' 
TABS,ioos:station:wmo:42048:1,2006-05-04T06:30:00Z,27.9396,-96.8429,2.0,219.3973261,10.43014861,-99999.0,'11111222,11111222,99999999' 
TABS,ioos:station:wmo:42048:1,2006-05-04T07:00:00Z,27.9396,-96.8429,2.0,216.1578904,10.62681984,-99999.0,'11111222,11111222,99999999' 
TABS,ioos:station:wmo:42048:1,2006-05-04T07:30:00Z,27.9396,-96.8429,2.0,221.6417078,11.22691854,-99999.0,'11111222,11111222,99999999' 
TABS,ioos:station:wmo:42048:1,2006-05-04T08:00:00Z,27.9396,-96.8429,2.0,216.8064504,12.70200772,-99999.0,'11111222,11111222,99999999' 
TABS,ioos:station:wmo:42048:1,2006-05-04T08:30:00Z,27.9396,-96.8429,2.0,211.6072179,9.769176014,-99999.0,'11133222,11111222,99999999' 
TABS,ioos:station:wmo:42048:1,2006-05-04T09:00:00Z,27.9396,-96.8429,2.0,215.7452991,8.969726863,-99999.0,'11133222,11111222,99999999' 
TABS,ioos:station:wmo:42048:1,2006-05-04T09:30:00Z,27.9396,-96.8429,2.0,218.1434289,9.536356747,-99999.0,'11133222,11111222,99999999' 
TABS,ioos:station:wmo:42048:1,2006-05-04T10:00:00Z,27.9396,-96.8429,2.0,228.6422371,10.6847555,-99999.0,'11111222,11111222,99999999' 
TABS,ioos:station:wmo:42048:1,2006-05-04T10:30:00Z,27.9396,-96.8429,2.0,220.6430919,10.3324005,-99999.0,'11111222,11111222,99999999' 
TABS,ioos:station:wmo:42048:1,2006-05-04T11:00:00Z,27.9396,-96.8429,2.0,208.643038,9.7422482,-99999.0,'11133222,11111222,99999999' 
TABS,ioos:station:wmo:42048:1,2006-05-04T11:30:00Z,27.9396,-96.8429,2.0,227.3974625,9.971865422,-99999.0,'11133222,11111222,99999999' 
TABS,ioos:station:wmo:42048:1,2006-05-04T12:00:00Z,27.9396,-96.8429,2.0,219.9995653,9.816644029,-99999.0,'11133222,11111222,99999999' 
TABS,ioos:station:wmo:42048:1,2006-05-04T12:30:00Z,27.9396,-96.8429,2.0,219.5868164,8.395439238,-99999.0,'11133222,11111222,99999999' 
TABS,ioos:station:wmo:42048:1,2006-05-04T13:00:00Z,27.9396,-96.8429,2.0,233.5738098,8.774263502,-99999.0,'11133222,11111222,99999999' 
TABS,ioos:station:wmo:42048:1,2006-05-04T13:30:00Z,27.9396,-96.8429,2.0,223.0867883,7.202360724,-99999.0,'11133222,11111222,99999999' 
TABS,ioos:station:wmo:42048:1,2006-05-04T14:00:00Z,27.9396,-96.8429,2.0,225.307486,9.213734314,-99999.0,'11133222,11111222,99999999' 
TABS,ioos:station:wmo:42048:1,2006-05-04T14:30:00Z,27.9396,-96.8429,2.0,253.2921993,6.713404501,-99999.0,'11133222,11111222,99999999' 
TABS,ioos:station:wmo:42048:1,2006-05-04T15:00:00Z,27.9396,-96.8429,2.0,240.302996,4.420599507,-99999.0,'11133222,11111222,99999999' 
TABS,ioos:station:wmo:42048:1,2006-05-04T15:30:00Z,27.9396,-96.8429,2.0,260.8164535,4.386217049,-99999.0,'11133222,11111222,99999999' 
TABS,ioos:station:wmo:42048:1,2006-05-04T16:00:00Z,27.9396,-96.8429,2.0,256.2388261,4.540319372,-99999.0,'11133222,11111222,99999999' 
TABS,ioos:station:wmo:42048:1,2006-05-04T16:30:00Z,27.9396,-96.8429,2.0,298.3615489,5.136535798,-99999.0,'11133222,11111222,99999999' 
TABS,ioos:station:wmo:42048:1,2006-05-04T17:00:00Z,27.9396,-96.8429,2.0,260.6672746,2.898361606,-99999.0,'11133222,11111222,99999999' 
TABS,ioos:station:wmo:42048:1,2006-05-04T17:30:00Z,27.9396,-96.8429,2.0,179.190011,2.830282671,-99999.0,'11133222,11111222,99999999' 
TABS,ioos:station:wmo:42048:1,2006-05-04T18:30:00Z,27.9396,-96.8429,2.0,333.8612035,2.406075643,-99999.0,'11133222,11111222,99999999' 
TABS,ioos:station:wmo:42048:1,2006-05-04T19:00:00Z,27.9396,-96.8429,2.0,335.902601,3.012540456,-99999.0,'11133222,11111222,99999999' 
TABS,ioos:station:wmo:42048:1,2006-05-04T19:30:00Z,27.9396,-96.8429,2.0,326.8814455,2.781959741,-99999.0,'11133222,11111222,99999999' 
TABS,ioos:station:wmo:42048:1,2006-05-04T20:00:00Z,27.9396,-96.8429,2.0,325.2248734,5.417619403,-99999.0,'11133222,11111222,99999999' 
TABS,ioos:station:wmo:42048:1,2006-05-04T20:30:00Z,27.9396,-96.8429,2.0,333.9878954,4.17269697,-99999.0,'11133222,11111222,99999999' 
TABS,ioos:station:wmo:42048:1,2006-05-04T21:00:00Z,27.9396,-96.8429,2.0,4.672053831,4.665501045,-99999.0,'11133222,11111222,99999999' 
TABS,ioos:station:wmo:42048:1,2006-05-04T22:00:00Z,27.9396,-96.8429,2.0,349.1968605,4.214700464,-99999.0,'11133222,11111222,99999999' 
TABS,ioos:station:wmo:42048:1,2006-05-04T22:30:00Z,27.9396,-96.8429,2.0,18.249092,5.843919917,-99999.0,'11133222,11111222,99999999' 